Regional Weather Roundup
Issued by NWS

Home | Current Version | Previous Version | Graphics & Text | Print | Product List | Glossary On
Versions: 1 2 3 4 5 6 7 8 9 10 11 12 13 14 15 16 17 18 19 20 21 22 23 24 25 26 27 28 29 30 31 32 33 34 35 36 37 38 39 40 41 42 43 44 45 46 47 48 49 50
600
ASUS43 KLMK 261710
RWRKY
KENTUCKY REGIONAL WEATHER ROUNDUP
NATIONAL WEATHER SERVICE LOUISVILLE KY
100 PM EDT SUN MAR 26 2017

NOTE "FAIR" INDICATES FEW OR NO CLOUDS BELOW 12,000 FEET
WITH NO SIGNIFICANT WEATHER AND/OR OBSTRUCTIONS TO VISIBILITY.

KYZ001>023-026-027-061>063-070>075-261800-
WESTERN AND SOUTH CENTRAL KENTUCKY

CITY           SKY/WX    TMP DP  RH WIND       PRES   REMARKS
PADUCAH        PTSUNNY   61  50  67 SW12      29.95F
HENDERSON      CLOUDY    57  54  88 SW8       29.92F
OWENSBORO      CLOUDY    64  58  80 S15       29.94F
HOPKINSVILLE   CLOUDY    64  57  78 S14G24    29.98S
BOWLING GREEN  CLOUDY    64  55  72 SW15      30.00F
GLASGOW        CLOUDY    64  55  71 SW12      30.00F
$$

KYZ024-025-028>034-038-045-046-053-261800-
NORTH CENTRAL KENTUCKY

CITY           SKY/WX    TMP DP  RH WIND       PRES   REMARKS
LOUISVILLE/SDF CLOUDY    65  55  70 SW15      29.95F
LOUISVILLE/LOU CLOUDY    65  55  70 S12       29.96F
FORT KNOX      CLOUDY    63  57  80 S15       29.95F
$$

KYZ035>037-039>044-047>052-055>060-089>105-261800-
NORTHEAST KENTUCKY

CITY           SKY/WX    TMP DP  RH WIND       PRES   REMARKS
LEXINGTON      CLOUDY    63  57  81 SW17      29.99F
COVINGTON      LGT RAIN  57  56  96 SE9       29.97F FOG
FRANKFORT      CLOUDY    62  55  77 SW10      29.97F
$$

KYZ054-064>069-076>088-106>120-261800-
SOUTHEAST KENTUCKY

CITY           SKY/WX    TMP DP  RH WIND       PRES   REMARKS
JACKSON        CLOUDY    64  56  75 VRB6      30.03F
LONDON         CLOUDY    65  53  65 S14G23    30.02F
SOMERSET       HVY RAIN  57  57 100 W9        30.05S
MIDDLESBORO    CLOUDY    62  58  88 S5        30.07F
MONTICELLO     RAIN      59  58  96 W14       30.05F
$$





USA.gov is the U.S. government's official web portal to all federal, state and local government web resources and services.